Time,TemperatureF,DewpointF,PressureIn,WindDirection,WindDirectionDegrees,WindSpeedMPH,WindSpeedGustMPH,Humidity,HourlyPrecipIn,Conditions,Clouds,dailyrainin,SoftwareType,DateUTC
2013-03-15 00:00:00,29.7,-3.6,30.21,WNW,302,2.7,6.3,23,0.00,,SKC,0.00,VWS V14.01,2013-03-15 04:00:00,
2013-03-15 00:20:00,29.7,-3.6,30.21,NW,305,6.3,12.3,23,0.00,,SKC,0.00,VWS V14.01,2013-03-15 04:20:00,
2013-03-15 00:40:00,29.7,-3.6,30.21,West,277,3.1,9.2,23,0.00,,SKC,0.00,VWS V14.01,2013-03-15 04:40:00,
2013-03-15 01:00:00,29.5,-3.7,30.21,WNW,302,7.6,7.6,23,0.00,,SKC,0.00,VWS V14.01,2013-03-15 05:00:00,
2013-03-15 01:20:00,29.5,-3.7,30.21,West,281,6.3,8.3,23,0.00,,SKC,0.00,VWS V14.01,2013-03-15 05:20:00,
2013-03-15 01:40:00,29.5,-3.7,30.18,NW,318,2.7,7.6,23,0.00,,SKC,0.00,VWS V14.01,2013-03-15 05:40:00,
2013-03-15 02:00:00,28.9,-4.2,30.18,WNW,302,3.6,7.6,23,0.00,,SKC,0.00,VWS V14.01,2013-03-15 06:00:00,
2013-03-15 02:20:00,28.8,-4.3,30.18,West,278,3.1,10.1,23,0.00,,SKC,0.00,VWS V14.01,2013-03-15 06:20:00,
2013-03-15 02:40:00,29.3,-3.9,30.15,WNW,297,8.1,8.7,23,0.00,,SKC,0.00,VWS V14.01,2013-03-15 06:40:00,
2013-03-15 03:00:00,28.9,-4.2,30.15,WNW,296,4.0,8.3,23,0.00,,SKC,0.00,VWS V14.01,2013-03-15 07:00:00,
2013-03-15 03:20:00,29.3,-3.9,30.15,WNW,289,7.6,10.5,23,0.00,,SKC,0.00,VWS V14.01,2013-03-15 07:20:00,
2013-03-15 03:40:00,29.5,-3.7,30.15,NNW,333,6.3,10.1,23,0.00,,SKC,0.00,VWS V14.01,2013-03-15 07:40:00,
2013-03-15 04:00:00,29.5,-3.7,30.15,WNW,300,3.6,6.7,23,0.00,,SKC,0.00,VWS V14.01,2013-03-15 08:00:00,
2013-03-15 04:20:00,29.5,-3.7,30.15,NW,309,3.6,8.3,23,0.00,,SKC,0.00,VWS V14.01,2013-03-15 08:20:00,
2013-03-15 04:40:00,29.5,-3.7,30.15,West,261,4.9,7.6,23,0.00,,SKC,0.00,VWS V14.01,2013-03-15 08:40:00,
2013-03-15 05:00:00,30.0,-3.3,30.15,WNW,289,4.9,14.1,23,0.00,,SKC,0.00,VWS V14.01,2013-03-15 09:00:00,
2013-03-15 05:20:00,29.5,-3.7,30.15,NW,311,3.6,8.3,23,0.00,,SKC,0.00,VWS V14.01,2013-03-15 09:20:00,
2013-03-15 05:40:00,29.7,-3.6,30.15,WNW,295,10.1,10.1,23,0.00,,SKC,0.00,VWS V14.01,2013-03-15 09:40:00,
2013-03-15 06:00:00,29.8,-3.4,30.15,WNW,302,11.0,11.0,23,0.00,,SKC,0.00,VWS V14.01,2013-03-15 10:00:00,
2013-03-15 06:20:00,29.7,-3.6,30.15,West,265,6.3,11.0,23,0.00,,SKC,0.00,VWS V14.01,2013-03-15 10:20:00,
2013-03-15 06:40:00,29.1,-4.1,30.15,WNW,291,0.0,8.1,23,0.00,,SKC,0.00,VWS V14.01,2013-03-15 10:40:00,
2013-03-15 07:00:00,29.1,-4.1,30.15,West,273,5.4,8.3,23,0.00,,SKC,0.00,VWS V14.01,2013-03-15 11:00:00,
2013-03-15 07:20:00,29.1,-4.1,30.18,SW,236,3.6,7.6,23,0.00,,SKC,0.00,VWS V14.01,2013-03-15 11:20:00,
2013-03-15 07:40:00,29.5,-3.7,30.18,West,278,0.0,5.4,23,0.00,,SKC,0.00,VWS V14.01,2013-03-15 11:40:00,
2013-03-15 08:00:00,29.5,-3.7,30.18,West,278,0.0,0.0,23,0.00,,SKC,0.00,VWS V14.01,2013-03-15 12:00:00,
2013-03-15 08:20:00,30.0,-3.3,30.18,WNW,282,0.0,0.0,23,0.00,,SKC,0.00,VWS V14.01,2013-03-15 12:20:00,
2013-03-15 08:40:00,30.4,-3.0,30.18,WNW,282,0.0,0.0,23,0.00,,SKC,0.00,VWS V14.01,2013-03-15 12:40:00,
2013-03-15 09:00:00,32.7,0.8,30.18,WNW,282,0.0,0.0,25,0.00,,SKC,0.00,VWS V14.01,2013-03-15 13:00:00,
2013-03-15 09:20:00,37.2,1.9,30.18,WNW,282,0.0,0.0,22,0.00,,SKC,0.00,VWS V14.01,2013-03-15 13:20:00,
2013-03-15 09:40:00,39.9,3.2,30.15,WNW,296,6.3,6.3,21,0.00,,SKC,0.00,VWS V14.01,2013-03-15 13:40:00,
2013-03-15 10:00:00,44.1,5.6,30.15,WNW,296,3.6,6.3,20,0.00,,SKC,0.00,VWS V14.01,2013-03-15 14:00:00,
2013-03-15 10:20:00,46.4,6.4,30.15,WNW,283,4.0,8.7,19,0.00,,SKC,0.00,VWS V14.01,2013-03-15 14:20:00,
2013-03-15 10:40:00,47.1,7.0,30.15,NW,305,0.0,4.0,19,0.00,,SKC,0.00,VWS V14.01,2013-03-15 14:40:00,
2013-03-15 11:00:00,48.7,8.3,30.15,SSW,196,0.0,0.0,19,0.00,,SKC,0.00,VWS V14.01,2013-03-15 15:00:00,
2013-03-15 11:20:00,49.5,8.9,30.15,West,269,2.7,4.9,19,0.00,,SKC,0.00,VWS V14.01,2013-03-15 15:20:00,
2013-03-15 11:40:00,50.2,9.5,30.15,ESE,108,5.8,6.3,19,0.00,,SKC,0.00,VWS V14.01,2013-03-15 15:40:00,
2013-03-15 12:00:00,49.5,8.9,30.15,East,85,0.0,5.8,19,0.00,,SKC,0.00,VWS V14.01,2013-03-15 16:00:00,
2013-03-15 12:20:00,50.2,9.5,30.15,East,89,0.0,3.6,19,0.00,,SKC,0.00,VWS V14.01,2013-03-15 16:20:00,
2013-03-15 12:40:00,50.7,10.0,30.15,ENE,66,0.0,6.3,19,0.00,,SKC,0.00,VWS V14.01,2013-03-15 16:40:00,
2013-03-15 13:00:00,52.3,10.1,30.12,NNE,23,3.6,4.9,18,0.00,,SKC,0.00,VWS V14.01,2013-03-15 17:00:00,
2013-03-15 13:20:00,56.3,12.1,30.12,WNW,295,3.1,6.3,17,0.00,,SKC,0.00,VWS V14.01,2013-03-15 17:20:00,
2013-03-15 13:40:00,55.8,11.6,30.12,WNW,293,3.6,5.8,17,0.00,,SKC,0.00,VWS V14.01,2013-03-15 17:40:00,
2013-03-15 14:00:00,57.2,12.8,30.12,NNW,344,3.1,5.8,17,0.00,,SKC,0.00,VWS V14.01,2013-03-15 18:00:00,
2013-03-15 14:20:00,56.7,12.4,30.09,NW,307,4.0,8.1,17,0.00,,SKC,0.00,VWS V14.01,2013-03-15 18:20:00,
2013-03-15 14:40:00,58.3,13.7,30.09,NW,313,4.0,6.3,17,0.00,,SKC,0.00,VWS V14.01,2013-03-15 18:40:00,
2013-03-15 15:00:00,58.3,13.7,30.09,NNW,333,5.8,6.3,17,0.00,,SKC,0.00,VWS V14.01,2013-03-15 19:00:00,
2013-03-15 15:20:00,59.7,14.9,30.06,WNW,297,9.2,9.2,17,0.00,,SKC,0.00,VWS V14.01,2013-03-15 19:20:00,
2013-03-15 15:40:00,61.0,14.5,30.06,WNW,299,10.5,10.5,16,0.00,,SKC,0.00,VWS V14.01,2013-03-15 19:40:00,
2013-03-15 16:00:00,60.1,15.1,30.06,NW,309,8.3,16.8,17,0.00,,SKC,0.00,VWS V14.01,2013-03-15 20:00:00,
2013-03-15 16:20:00,59.9,15.0,30.06,WNW,295,5.8,12.8,17,0.00,,SKC,0.00,VWS V14.01,2013-03-15 20:20:00,
2013-03-15 16:40:00,60.4,15.4,30.06,WNW,288,19.2,19.2,17,0.00,,SKC,0.00,VWS V14.01,2013-03-15 20:40:00,
2013-03-15 17:00:00,59.7,14.9,30.06,NW,316,10.5,19.2,17,0.00,,SKC,0.00,VWS V14.01,2013-03-15 21:00:00,
2013-03-15 17:20:00,58.8,14.1,30.06,West,269,7.6,10.5,17,0.00,,SKC,0.00,VWS V14.01,2013-03-15 21:20:00,
2013-03-15 17:40:00,58.1,13.5,30.03,WNW,294,5.8,8.7,17,0.00,,SKC,0.00,VWS V14.01,2013-03-15 21:40:00,
2013-03-15 18:00:00,57.2,12.8,30.06,West,280,5.8,12.3,17,0.00,,SKC,0.00,VWS V14.01,2013-03-15 22:00:00,
2013-03-15 18:20:00,56.8,12.5,30.06,West,265,5.8,10.1,17,0.00,,SKC,0.00,VWS V14.01,2013-03-15 22:20:00,
2013-03-15 18:40:00,55.6,11.5,30.06,WNW,288,10.1,12.8,17,0.00,,SKC,0.00,VWS V14.01,2013-03-15 22:40:00,
2013-03-15 19:00:00,54.5,11.9,30.06,WNW,297,5.4,10.5,18,0.00,,SKC,0.00,VWS V14.01,2013-03-15 23:00:00,
2013-03-15 19:20:00,53.1,10.7,30.06,West,281,6.3,11.4,18,0.00,,SKC,0.00,VWS V14.01,2013-03-15 23:20:00,
2013-03-15 19:40:00,51.6,10.7,30.06,West,278,5.8,6.3,19,0.00,,SKC,0.00,VWS V14.01,2013-03-15 23:40:00,
2013-03-15 20:00:00,49.3,8.8,30.06,WNW,283,0.0,7.6,19,0.00,,SKC,0.00,VWS V14.01,2013-03-16 00:00:00,
2013-03-15 20:20:00,46.6,6.5,30.06,WNW,283,0.0,0.0,19,0.00,,SKC,0.00,VWS V14.01,2013-03-16 00:20:00,
2013-03-15 20:40:00,44.6,6.0,30.06,WNW,283,0.0,0.0,20,0.00,,SKC,0.00,VWS V14.01,2013-03-16 00:40:00,
2013-03-15 21:00:00,42.8,4.5,30.06,WNW,283,0.0,0.0,20,0.00,,SKC,0.00,VWS V14.01,2013-03-16 01:00:00,
2013-03-15 21:20:00,41.0,4.1,30.06,WNW,283,0.0,0.0,21,0.00,,SKC,0.00,VWS V14.01,2013-03-16 01:20:00,
2013-03-15 21:40:00,39.2,2.6,30.06,WNW,283,0.0,0.0,21,0.00,,SKC,0.00,VWS V14.01,2013-03-16 01:40:00,
2013-03-15 22:00:00,38.7,2.1,30.06,WNW,283,0.0,0.0,21,0.00,,SKC,0.00,VWS V14.01,2013-03-16 02:00:00,
2013-03-15 22:20:00,37.4,1.0,30.06,WNW,283,0.0,0.0,21,0.00,,SKC,0.00,VWS V14.01,2013-03-16 02:20:00,
2013-03-15 22:40:00,36.3,1.1,30.06,WNW,283,0.0,0.0,22,0.00,,SKC,0.00,VWS V14.01,2013-03-16 02:40:00,
2013-03-15 23:00:00,35.6,2.4,30.06,WNW,283,0.0,0.0,24,0.00,,SKC,0.00,VWS V14.01,2013-03-16 03:00:00,
2013-03-15 23:20:00,34.9,2.6,30.06,WNW,283,0.0,0.0,25,0.00,,SKC,0.00,VWS V14.01,2013-03-16 03:20:00,
2013-03-15 23:40:00,34.5,4.0,30.03,WNW,283,0.0,0.0,27,0.00,,SKC,0.00,VWS V14.01,2013-03-16 03:40:00,